DW8249 Weather Reports


Display with metric or nautical units.
time (UTC)temp
F
wind
direction
speed
MPH
gust
MPH
rain 1hr
in
rain 24hr
in
rain mn
in
humidity
%
barometer
mb
20260502203018 62 219 5.0 15.0 0.00 0.00 0.00 37 1011.8
20260502201517 63 241 6.0 13.0 0.00 0.00 0.00 36 1012.1
20260502200011 62 225 6.0 13.0 0.00 0.00 0.00 36 1012.3
20260502194507 60 223 6.0 17.0 0.00 0.00 0.00 37 1012.7
20260502193005 60 229 6.0 12.0 0.00 0.00 0.00 39 1013.0
20260502191506 59 213 4.0 13.0 0.00 0.00 0.00 39 1013.3
20260502190100 59 229 5.0 13.0 0.00 0.00 0.00 38 1013.6
20260502184559 59 275 7.0 14.0 0.00 0.00 0.00 39 1013.9
20260502183057 59 246 7.0 13.0 0.00 0.00 0.00 37 1014.2
20260502181554 58 188 5.0 14.0 0.00 0.00 0.00 41 1014.5
20260502163035 54 324 2.0 12.0 0.00 0.00 0.00 41 1016.1
20260502161528 53 223 4.0 9.0 0.00 0.00 0.00 40 1016.5
20260502151522 51 229 4.0 12.0 0.00 0.00 0.00 44 1017.5
20260502123054 39 277 0.0 2.0 0.00 0.00 0.00 86 1018.7
20260502121541 36 279 0.0 0.0 0.00 0.00 0.00 90 1018.6
20260502114536 34 279 0.0 0.0 0.00 0.00 0.00 89 1018.6
20260502113038 33 279 0.0 0.0 0.00 0.00 0.00 88 1018.7
20260502111545 34 279 0.0 0.0 0.00 0.00 0.00 88 1018.7
20260502110032 33 279 0.0 0.0 0.00 0.00 0.00 87 1018.7
20260502104531 33 279 0.0 0.0 0.00 0.00 0.00 85 1018.8
20260502103030 33 279 0.0 0.0 0.00 0.00 0.00 84 1018.8
20260502101530 33 279 0.0 0.0 0.00 0.00 0.00 83 1018.9
20260502091526 34 279 0.0 0.0 0.00 0.00 0.00 77 1018.8
20260502071510 35 279 0.0 0.0 0.00 0.00 0.00 62 1019.0
20260502070006 37 279 0.0 0.0 0.00 0.00 0.00 57 1019.1
20260502064512 38 279 0.0 0.0 0.00 0.00 0.00 57 1019.2
20260502063124 38 279 0.0 0.0 0.00 0.00 0.00 55 1019.2
20260502061558 39 279 0.0 0.0 0.00 0.00 0.00 54 1019.2
20260502060058 40 279 0.0 0.0 0.00 0.00 0.00 53 1019.1
20260502054556 40 279 0.0 0.0 0.00 0.00 0.00 52 1019.1
20260502053059 40 279 0.0 0.0 0.00 0.00 0.00 51 1019.1
20260502051549 40 279 0.0 0.0 0.00 0.00 0.00 51 1019.2
20260502050047 40 279 0.0 0.0 0.00 0.00 0.00 52 1019.2
20260502044547 40 279 0.0 0.0 0.00 0.00 0.00 53 1019.2
20260502043046 41 279 0.0 0.0 0.00 0.00 0.00 54 1019.2
20260502041552 42 279 0.0 0.0 0.00 0.00 0.00 55 1019.3
20260502040045 42 279 0.0 0.0 0.00 0.00 0.00 52 1019.3
20260502034547 41 279 0.0 0.0 0.00 0.00 0.00 49 1019.3
20260502033044 42 279 0.0 0.0 0.00 0.00 0.00 46 1019.4
20260502031544 42 279 0.0 0.0 0.00 0.00 0.00 45 1019.3
20260502030048 43 279 0.0 0.0 0.00 0.00 0.00 44 1019.3
20260502024543 44 279 0.0 0.0 0.00 0.00 0.00 43 1019.3
20260502023043 44 279 0.0 0.0 0.00 0.00 0.00 44 1019.3
20260502021542 46 279 0.0 0.0 0.00 0.00 0.00 41 1019.1
20260502020043 47 279 0.0 0.0 0.00 0.00 0.00 40 1019.1
20260502014541 48 279 0.0 0.0 0.00 0.00 0.00 38 1018.9
20260502013040 50 279 0.0 0.0 0.00 0.00 0.00 37 1018.8
20260502011540 51 279 0.0 5.0 0.00 0.00 0.00 36 1018.7
20260502010039 52 265 0.0 3.0 0.00 0.00 0.00 34 1018.6
20260502004538 52 22 0.0 1.0 0.00 0.00 0.00 35 1018.5
20260502003039 52 24 0.0 3.0 0.00 0.00 0.00 33 1018.5
20260502001541 52 26 1.0 5.0 0.00 0.00 0.00 33 1018.5
20260502000037 52 265 0.0 0.0 0.00 0.00 0.00 35 1018.5
20260501234540 51 262 0.0 0.0 0.00 0.00 0.00 35 1018.5
20260501233036 51 263 0.0 3.0 0.00 0.00 0.00 36 1018.5
20260501231544 52 294 2.0 10.0 0.00 0.00 0.00 34 1018.6
20260501230036 53 266 6.0 12.0 0.00 0.00 0.00 33 1018.7
20260501224545 53 286 5.0 11.0 0.00 0.00 0.00 34 1018.6
20260501223042 53 267 5.0 10.0 0.00 0.00 0.00 34 1018.6
20260501221541 53 267 4.0 13.0 0.00 0.00 0.00 36 1018.6
20260501220033 52 278 5.0 13.0 0.00 0.00 0.00 35 1018.7
20260501214534 53 238 7.0 13.0 0.00 0.00 0.00 33 1018.6
20260501213033 53 263 5.0 12.0 0.00 0.00 0.00 35 1018.6
20260501211530 52 240 6.0 12.0 0.00 0.00 0.00 35 1018.6
20260501210029 52 24 4.0 10.0 0.00 0.00 0.00 34 1018.8
20260501204528 51 263 5.0 12.0 0.00 0.00 0.00 35 1018.9